TimeAKST,TemperatureF,Dew PointF,Humidity,Sea Level PressureIn,VisibilityMPH,Wind Direction,Wind SpeedMPH,Gust SpeedMPH,PrecipitationIn,Events,Conditions,WindDirDegrees,DateUTC
12:16 AM,-9999,-9999,N/A,30.23,10.0,Calm,Calm,-,N/A,,Clear,0,2012-11-29 09:16:00
12:56 AM,-9999,-9999,N/A,30.24,10.0,Calm,Calm,-,N/A,,Mostly Cloudy,0,2012-11-29 09:56:00
1:16 AM,-9999,-9999,N/A,30.24,10.0,Calm,Calm,-,N/A,,Scattered Clouds,0,2012-11-29 10:16:00
1:36 AM,-32.8,-9999,N/A,30.24,10.0,Calm,Calm,-,N/A,,Mostly Cloudy,0,2012-11-29 10:36:00
1:56 AM,-9999,-9999,N/A,30.24,10.0,Calm,Calm,-,N/A,,Overcast,0,2012-11-29 10:56:00
2:16 AM,-9999,-9999,N/A,30.24,10.0,Calm,Calm,-,N/A,,Overcast,0,2012-11-29 11:16:00
2:36 AM,-9999,-9999,N/A,30.24,10.0,NE,3.5,-,N/A,,Overcast,40,2012-11-29 11:36:00
3:16 AM,-29.2,-9999,N/A,30.25,10.0,Calm,Calm,-,N/A,,Clear,0,2012-11-29 12:16:00
3:36 AM,-29.2,-9999,N/A,30.25,10.0,Calm,Calm,-,N/A,,Clear,0,2012-11-29 12:36:00
3:56 AM,-29.2,-9999,N/A,30.25,10.0,Calm,Calm,-,N/A,,Partly Cloudy,0,2012-11-29 12:56:00
4:16 AM,-31.0,-9999,N/A,30.26,10.0,Calm,Calm,-,N/A,,Partly Cloudy,0,2012-11-29 13:16:00
4:36 AM,-31.0,-9999,N/A,30.26,10.0,Calm,Calm,-,N/A,,Clear,0,2012-11-29 13:36:00
4:56 AM,-31.0,-9999,N/A,30.26,10.0,Calm,Calm,-,N/A,,Clear,0,2012-11-29 13:56:00
5:16 AM,-32.8,-9999,N/A,30.26,10.0,Calm,Calm,-,N/A,,Clear,0,2012-11-29 14:16:00
5:36 AM,-32.8,-9999,N/A,30.27,10.0,Calm,Calm,-,N/A,,Clear,0,2012-11-29 14:36:00
5:56 AM,-9999,-9999,N/A,30.27,10.0,Calm,Calm,-,N/A,,Clear,0,2012-11-29 14:56:00
6:16 AM,-32.8,-9999,N/A,30.27,10.0,Calm,Calm,-,N/A,,Clear,0,2012-11-29 15:16:00
6:36 AM,-32.8,-9999,N/A,30.28,10.0,Calm,Calm,-,N/A,,Clear,0,2012-11-29 15:36:00
6:56 AM,-32.8,-9999,N/A,30.28,10.0,Calm,Calm,-,N/A,,Clear,0,2012-11-29 15:56:00
7:16 AM,-32.8,-9999,N/A,30.28,10.0,Calm,Calm,-,N/A,,Clear,0,2012-11-29 16:16:00
7:36 AM,-32.8,-9999,N/A,30.28,10.0,Calm,Calm,-,N/A,,Clear,0,2012-11-29 16:36:00
7:56 AM,-32.8,-9999,N/A,30.29,10.0,Calm,Calm,-,N/A,,Clear,0,2012-11-29 16:56:00
8:16 AM,-31.0,-9999,N/A,30.30,10.0,Calm,Calm,-,N/A,,Clear,0,2012-11-29 17:16:00
8:36 AM,-29.2,-9999,N/A,30.29,10.0,Calm,Calm,-,N/A,,Clear,0,2012-11-29 17:36:00
8:56 AM,-9999,-9999,N/A,30.29,10.0,Calm,Calm,-,N/A,,Partly Cloudy,0,2012-11-29 17:56:00
9:16 AM,-29.2,-9999,N/A,30.30,10.0,Calm,Calm,-,N/A,,Partly Cloudy,0,2012-11-29 18:16:00
9:36 AM,-9999,-9999,N/A,30.29,10.0,Calm,Calm,-,N/A,,Partly Cloudy,0,2012-11-29 18:36:00
9:56 AM,-29.2,-9999,N/A,30.31,10.0,Calm,Calm,-,N/A,,Partly Cloudy,0,2012-11-29 18:56:00
10:16 AM,-29.2,-9999,N/A,30.31,10.0,Calm,Calm,-,N/A,,Partly Cloudy,0,2012-11-29 19:16:00
10:36 AM,-9999,-9999,N/A,30.31,10.0,Calm,Calm,-,N/A,,Partly Cloudy,0,2012-11-29 19:36:00
10:56 AM,-9999,-9999,N/A,30.31,9.0,Calm,Calm,-,N/A,,Partly Cloudy,0,2012-11-29 19:56:00
11:16 AM,-29.2,-9999,N/A,30.32,8.0,Calm,Calm,-,N/A,,Partly Cloudy,0,2012-11-29 20:16:00
11:36 AM,-9999,-9999,N/A,30.31,9.0,Calm,Calm,-,N/A,,Partly Cloudy,0,2012-11-29 20:36:00
11:56 AM,-29.2,-9999,N/A,30.32,9.0,Calm,Calm,-,N/A,,Partly Cloudy,0,2012-11-29 20:56:00
12:16 PM,-9999,-9999,N/A,30.32,10.0,Calm,Calm,-,N/A,,Partly Cloudy,0,2012-11-29 21:16:00
12:36 PM,-9999,-9999,N/A,30.32,10.0,Calm,Calm,-,N/A,,Partly Cloudy,0,2012-11-29 21:36:00
12:56 PM,-29.2,-9999,N/A,30.33,10.0,Calm,Calm,-,N/A,,Partly Cloudy,0,2012-11-29 21:56:00
1:16 PM,-27.4,-27.4,100,30.32,10.0,Calm,Calm,-,N/A,,Partly Cloudy,0,2012-11-29 22:16:00
1:36 PM,-27.4,-9999,N/A,30.33,10.0,Calm,Calm,-,N/A,,Scattered Clouds,0,2012-11-29 22:36:00
1:56 PM,-27.4,-9999,N/A,30.32,10.0,Calm,Calm,-,N/A,,Scattered Clouds,0,2012-11-29 22:56:00
2:16 PM,-9999,-9999,N/A,30.32,10.0,Calm,Calm,-,N/A,,Partly Cloudy,0,2012-11-29 23:16:00
2:36 PM,-29.2,-9999,N/A,30.33,10.0,Calm,Calm,-,N/A,,Partly Cloudy,0,2012-11-29 23:36:00
2:56 PM,-29.2,-9999,N/A,30.33,10.0,Calm,Calm,-,N/A,,Partly Cloudy,0,2012-11-29 23:56:00
3:16 PM,-29.2,-9999,N/A,30.33,10.0,Calm,Calm,-,N/A,,Partly Cloudy,0,2012-11-30 00:16:00
3:36 PM,-29.2,-9999,N/A,30.34,10.0,Calm,Calm,-,N/A,,Clear,0,2012-11-30 00:36:00
3:56 PM,-31.0,-9999,N/A,30.34,10.0,Calm,Calm,-,N/A,,Clear,0,2012-11-30 00:56:00
4:16 PM,-31.0,-9999,N/A,30.35,10.0,Calm,Calm,-,N/A,,Clear,0,2012-11-30 01:16:00
4:36 PM,-31.0,-9999,N/A,30.35,10.0,Calm,Calm,-,N/A,,Partly Cloudy,0,2012-11-30 01:36:00
4:56 PM,-32.8,-9999,N/A,30.34,10.0,Calm,Calm,-,N/A,,Scattered Clouds,0,2012-11-30 01:56:00
5:16 PM,-32.8,-9999,N/A,30.35,10.0,Calm,Calm,-,N/A,,Partly Cloudy,0,2012-11-30 02:16:00
5:36 PM,-9999,-9999,N/A,30.35,10.0,Calm,Calm,-,N/A,,Clear,0,2012-11-30 02:36:00
5:56 PM,-9999,-9999,N/A,30.34,10.0,Calm,Calm,-,N/A,,Clear,0,2012-11-30 02:56:00
6:16 PM,-9999,-9999,N/A,30.36,10.0,Calm,Calm,-,N/A,,Clear,0,2012-11-30 03:16:00
6:36 PM,-9999,-9999,N/A,30.35,10.0,Calm,Calm,-,N/A,,Clear,0,2012-11-30 03:36:00
6:56 PM,-9999,-9999,N/A,30.36,10.0,Calm,Calm,-,N/A,,Clear,0,2012-11-30 03:56:00
7:16 PM,-9999,-9999,N/A,30.36,4.0,Calm,Calm,-,N/A,,Scattered Clouds,0,2012-11-30 04:16:00
7:36 PM,-9999,-9999,N/A,30.35,3.0,Calm,Calm,-,N/A,,Partly Cloudy,0,2012-11-30 04:36:00
7:56 PM,-9999,-9999,N/A,30.36,4.0,Calm,Calm,-,N/A,,Clear,0,2012-11-30 04:56:00
8:16 PM,-9999,-9999,N/A,30.36,4.0,Calm,Calm,-,N/A,,Clear,0,2012-11-30 05:16:00
8:36 PM,-34.6,-9999,N/A,30.36,5.0,Calm,Calm,-,N/A,,Clear,0,2012-11-30 05:36:00
8:56 PM,-34.6,-9999,N/A,30.36,6.0,Calm,Calm,-,N/A,,Clear,0,2012-11-30 05:56:00
9:16 PM,-9999,-9999,N/A,30.35,9.0,Calm,Calm,-,N/A,,Clear,0,2012-11-30 06:16:00
9:36 PM,-9999,-9999,N/A,30.34,3.0,Calm,Calm,-,N/A,,Clear,0,2012-11-30 06:36:00
9:56 PM,-9999,-9999,N/A,30.34,3.0,Calm,Calm,-,N/A,,Clear,0,2012-11-30 06:56:00
10:16 PM,-9999,-9999,N/A,30.34,10.0,Calm,Calm,-,N/A,,Clear,0,2012-11-30 07:16:00
10:36 PM,-36.4,-9999,N/A,30.34,4.0,Calm,Calm,-,N/A,,Clear,0,2012-11-30 07:36:00
10:56 PM,-9999,-9999,N/A,30.33,10.0,Calm,Calm,-,N/A,,Clear,0,2012-11-30 07:56:00
11:16 PM,-9999,-9999,N/A,30.33,7.0,Calm,Calm,-,N/A,,Clear,0,2012-11-30 08:16:00
11:36 PM,-9999,-9999,N/A,30.34,10.0,Calm,Calm,-,N/A,,Clear,0,2012-11-30 08:36:00
11:56 PM,-9999,-9999,N/A,30.33,9.0,Calm,Calm,-,N/A,,Clear,0,2012-11-30 08:56:00